sat.trackr.live / text

‹ back to catalog

SES-9

NORAD 41380 · 2016-013A

PAYLOAD ACTIVE UNKNOWN

§ Identity

Operator
Country
SES
Launch date
2016-03-04
Launch site
AFETR
Launch vehicle
Mass (kg)
RCS (m²)
20.53

Purposes: comms

External: N2YO · Heavens-Above · Gunter

§ Orbital elements

Epoch: 2026-09-19T12:21:18.464256Z

Period
1,436.14 min
Inclination
0.0125°
Eccentricity
0.0001922
Mean motion
1.00268584 rev/d
Perigee alt
35,779.4 km
Apogee alt
35,795.6 km
Semi-major
42,165.6 km
B*
0.0000e+0
RAAN
148.6104°
Arg perigee
339.6879°
Mean anomaly
163.7539°
Rev number
3,838

§ Raw data

SES-91 41380U 16013A   26262.51479704  .00000000  00000+0  00000+0 0  99902 41380   0.0125 148.6104 0001922 339.6879 163.7539  1.00268584 38389

JSON: /api/v1/satellites/41380 · /tle

For live sub-satellite position, see the globe view (requires WebGL).

§ Visibility from observer

Set your observer location to see the next 7 days of passes ≥ 10°. The values pass through the URL so the page stays shareable.

No JS? Fill the form by hand. The geolocation button needs JavaScript.